Vorticity
8 9 8 8 9 9 9 9 7 5 5 4 4 5 8 10 10 9 9 9 9 10 11 10 8 8 6 7 8 11 7 5 14 12 6 10 10 4 3 4 3 3 3 -1 7
8 9 8 7 8 9 8 8 9 9 8 9 9 7 6 6 8 9 10 8 10 9 10 12 9 11 10 8 8 8 -0 5 2 8 10 12 12 11 5 6 4 3 5 4 4
8 11 11 10 11 8 7 8 10 8 8 9 9 9 7 7 6 17 17 18 17 16 12 9 12 8 11 9 8 11 1 4 4 10 6 7 15 11 9 6 5 5 4 4 3
10 10 13 12 12 11 9 7 7 8 7 7 6 10 12 11 12 3 -2 -1 -1 5 12 10 12 8 10 11 8 7 9 11 6 5 9 10 11 10 11 8 9 7 7 9 10
9 10 13 13 10 9 9 11 14 12 13 13 12 11 11 12 10 14 13 13 11 11 14 10 9 12 8 11 14 9 8 8 11 11 9 9 7 5 6 6 6 8 8 7 6
9 10 13 12 10 8 8 10 8 11 10 11 11 10 12 11 21 15 14 11 10 11 12 14 10 12 10 11 10 9 21 9 10 9 9 9 8 7 10 10 9 8 8 6 6
9 9 11 11 11 11 13 15 14 12 11 7 12 8 11 7 8 9 11 14 14 11 10 14 12 12 16 17 11 12 13 12 12 9 5 7 6 4 7 6 6 6 9 8 6
9 10 10 13 14 14 11 13 13 12 9 15 5 17 17 22 13 11 7 4 4 6 15 15 13 12 14 11 7 17 13 12 14 10 7 7 6 4 10 14 12 8 6 6 5
9 10 13 13 12 12 12 12 13 8 17 5 18 -5 12 -1 6 10 8 13 19 7 7 9 15 13 15 11 12 14 3 15 8 10 7 4 7 13 14 18 11 3 8 5 5
8 9 13 12 12 9 8 11 13 20 9 16 6 28 7 21 8 17 13 3 6 12 10 7 5 7 11 8 3 9 13 6 1 11 11 5 2 2 3 -1 -5 6 5 4 2
10 10 10 11 8 11 13 10 12 13 17 25 23 9 7 14 13 16 14 10 24 13 2 14 19 10 1 6 11 11 6 4 6 3 6 9 9 14 10 2 7 28 8 5 -5
9 8 10 8 11 13 7 10 13 10 15 -2 -7 -4 -1 0 23 -10 13 9 12 5 8 12 12 5 2 -0 3 2 3 7 9 11 9 6 9 7 7 6 22 9 4 -3 -1
9 9 7 11 12 6 11 8 19 29 2 1 4 -12 -4 5 15 -8 15 9 7 9 11 9 -3 4 9 10 10 8 8 9 2 4 6 19 43 37 33 30 25 4 2 -8 5
10 10 9 10 10 10 11 14 16 38 -4 -0 0 -4 5 23 3 24 13 7 9 7 15 29 27 17 17 13 8 8 9 11 8 11 4 -10 3 6 10 31 11 11 -8 -3 7
9 9 11 9 8 12 13 18 12 11 -1 22 -6 1 21 11 6 8 9 12 6 17 15 7 8 12 9 6 6 2 11 7 5 9 14 34 10 25 26 12 12 -8 -10 3 8
10 8 10 9 9 11 12 21 11 20 -9 9 9 16 14 -2 18 0 12 10 28 12 15 7 6 9 10 10 17 3 7 10 25 25 18 15 -9 24 17 20 6 -5 -5 6 9
9 9 11 9 9 11 13 19 9 12 2 -2 -2 11 7 2 16 -6 17 2 27 21 -6 20 17 12 11 13 14 10 11 16 10 6 11 15 8 -14 17 32 -4 -7 1 7 8
8 10 12 8 8 10 13 23 15 2 -2 4 7 7 8 6 3 2 3 25 5 4 20 7 9 4 -6 6 -3 -1 1 -2 12 10 3 2 18 13 36 4 -6 -6 3 6 7
8 10 8 1 10 9 11 7 3 9 1 7 18 13 8 -1 24 19 13 15 1 18 15 14 15 -6 8 14 11 18 12 8 2 12 11 7 17 19 20 -7 -5 2 5 6 6
10 10 8 6 10 10 13 8 15 8 4 12 16 8 -4 -2 14 15 18 8 14 -2 15 6 17 20 12 4 12 7 1 9 17 10 11 14 14 -11 27 -4 1 4 5 6 6
9 10 3 22 14 8 11 7 9 9 9 14 1 9 -7 12 -5 19 -4 11 -0 -5 1 17 23 -1 2 13 7 8 8 9 2 1 8 5 15 14 8 -7 -13 3 6 5 7
11 16 8 24 19 9 9 11 9 5 13 16 9 5 14 6 20 31 -7 3 0 5 6 14 13 5 -2 8 6 6 2 7 -7 23 2 3 13 4 4 1 -17 -34 11 6 8
13 20 9 28 6 8 14 12 3 11 4 16 -5 8 13 5 20 -1 8 -20 24 16 -9 -10 4 16 26 28 34 19 18 15 1 -12 10 -8 0 -7 6 2 -2 -15 12 6 10
18 15 4 -2 11 6 15 6 4 16 15 -8 29 14 -4 6 19 -4 -18 27 -16 2 10 11 18 -13 -35 -23 -16 -16 -5 4 21 2 9 -25 -20 -1 -17 -12 5 14 23 6 10
15 6 9 4 9 11 22 4 6 6 -0 29 1 2 1 12 -10 56 13 -14 0 14 11 26 5 16 6 5 9 4 8 9 -0 7 -23 -25 -23 2 13 38 36 30 1 12 9
12 12 12 6 8 20 1 -1 17 -1 7 4 15 12 3 -1 8 10 18 22 7 5 14 12 6 6 10 32 40 18 -0 11 5 13 14 21 12 29 14 18 12 -6 5 12 9
10 3 0 2 7 15 -4 1 16 -0 0 19 4 12 16 31 12 3 7 15 6 4 11 9 6 2 16 4 -1 55 68 49 27 8 20 13 16 27 0 10 6 0 6 10 9
Height
3127 3124 3121 3117 3113 3110 3106 3103 3100 3097 3095 3092 3089 3087 3085 3084 3082 3081 3080 3080 3079 3079 3080 3081 3081 3082 3083 3084 3085 3087 3087 3086 3085 3086 3085 3087 3089 3090 3092 3093 3094 3095 3096 3097 3098
3125 3121 3116 3112 3109 3105 3102 3099 3096 3093 3090 3088 3085 3083 3081 3079 3077 3076 3076 3074 3073 3073 3074 3075 3076 3077 3078 3078 3079 3081 3080 3081 3080 3081 3082 3083 3085 3086 3089 3089 3089 3090 3092 3093 3094
3120 3116 3112 3108 3104 3101 3097 3094 3091 3089 3087 3084 3081 3079 3077 3075 3073 3070 3069 3069 3069 3069 3069 3069 3070 3071 3072 3073 3074 3074 3074 3074 3075 3076 3078 3078 3080 3082 3083 3085 3086 3087 3087 3088 3089
3117 3112 3107 3103 3100 3097 3094 3091 3087 3085 3082 3079 3076 3074 3073 3071 3072 3067 3066 3065 3065 3065 3065 3065 3066 3066 3067 3067 3068 3069 3068 3069 3070 3072 3073 3073 3075 3076 3078 3080 3082 3083 3083 3084 3084
3115 3110 3104 3100 3096 3093 3090 3086 3083 3080 3077 3074 3071 3069 3067 3066 3066 3063 3062 3061 3060 3060 3060 3061 3061 3061 3061 3061 3063 3063 3064 3065 3065 3067 3068 3069 3070 3072 3074 3075 3076 3077 3077 3078 3078
3113 3108 3102 3098 3093 3089 3086 3082 3078 3075 3072 3070 3067 3064 3062 3062 3060 3058 3058 3057 3056 3056 3056 3056 3055 3057 3057 3057 3058 3057 3058 3060 3060 3061 3062 3064 3065 3066 3069 3070 3070 3071 3072 3072 3072
3112 3106 3101 3095 3090 3085 3081 3078 3074 3071 3069 3066 3063 3061 3059 3058 3055 3055 3054 3053 3053 3053 3052 3052 3052 3052 3052 3052 3052 3053 3054 3054 3055 3056 3057 3058 3058 3059 3061 3062 3063 3064 3065 3066 3065
3110 3104 3098 3092 3088 3083 3078 3075 3071 3068 3065 3062 3060 3058 3055 3054 3053 3053 3052 3051 3051 3050 3050 3049 3048 3048 3048 3049 3048 3049 3050 3050 3049 3051 3051 3054 3051 3053 3053 3054 3055 3056 3059 3058 3057
3109 3103 3097 3091 3086 3082 3076 3073 3070 3066 3062 3060 3058 3056 3055 3054 3052 3051 3050 3049 3048 3048 3047 3046 3045 3045 3046 3046 3046 3046 3046 3046 3046 3046 3046 3048 3046 3046 3047 3049 3050 3051 3052 3052 3051
3108 3101 3096 3090 3085 3080 3075 3070 3067 3064 3061 3058 3056 3057 3056 3053 3051 3049 3048 3048 3046 3045 3044 3044 3044 3043 3043 3042 3043 3042 3042 3042 3041 3042 3042 3041 3041 3041 3042 3043 3045 3044 3045 3045 3045
3107 3101 3095 3089 3084 3078 3073 3069 3068 3065 3060 3057 3057 3056 3055 3053 3051 3048 3047 3046 3044 3043 3042 3041 3041 3040 3038 3039 3040 3039 3039 3038 3037 3037 3036 3036 3035 3036 3035 3035 3037 3036 3038 3039 3039
3105 3100 3094 3089 3083 3078 3072 3068 3065 3064 3061 3059 3057 3056 3054 3051 3050 3047 3046 3046 3042 3040 3039 3040 3037 3037 3036 3036 3036 3037 3036 3035 3034 3032 3031 3028 3027 3028 3027 3027 3029 3031 3033 3033 3032
3103 3098 3093 3088 3082 3077 3072 3067 3062 3060 3060 3059 3057 3055 3053 3051 3048 3046 3045 3042 3040 3038 3037 3035 3035 3033 3033 3033 3034 3033 3031 3031 3031 3029 3027 3023 3018 3017 3016 3016 3020 3025 3026 3027 3025
3103 3097 3092 3087 3084 3076 3071 3065 3061 3059 3060 3061 3057 3054 3051 3047 3046 3043 3041 3041 3038 3036 3034 3031 3030 3029 3030 3030 3031 3030 3028 3027 3026 3027 3026 3023 3018 3011 3008 3010 3015 3018 3020 3019 3016
3102 3096 3091 3085 3081 3076 3071 3065 3062 3061 3061 3062 3057 3054 3050 3049 3046 3042 3039 3037 3035 3033 3034 3031 3028 3028 3027 3028 3027 3026 3025 3024 3023 3022 3021 3016 3019 3001 3003 3005 3008 3012 3014 3012 3009
3101 3095 3089 3085 3081 3075 3070 3066 3064 3064 3061 3060 3057 3053 3050 3047 3044 3041 3038 3035 3032 3030 3029 3029 3027 3026 3025 3024 3024 3023 3023 3021 3018 3018 3018 3011 3014 3000 2998 3001 3004 3007 3008 3005 3002
3099 3094 3088 3084 3080 3074 3070 3067 3066 3063 3065 3061 3056 3051 3048 3045 3041 3039 3036 3034 3032 3031 3029 3027 3025 3024 3024 3023 3022 3022 3022 3019 3015 3015 3008 3009 3010 2995 2996 2997 3001 3003 3002 2999 2995
3098 3092 3087 3082 3079 3074 3069 3067 3066 3065 3062 3060 3055 3051 3048 3045 3041 3038 3035 3033 3031 3030 3028 3026 3024 3023 3023 3023 3023 3021 3022 3021 3012 3006 3007 3008 3000 2992 2993 2995 2997 2998 2997 2994 2989
3097 3091 3086 3081 3077 3073 3070 3067 3065 3064 3062 3057 3053 3049 3048 3045 3042 3037 3034 3033 3031 3029 3030 3026 3024 3022 3020 3020 3022 3019 3020 3021 3018 3014 3012 2998 2992 2990 2990 2992 2994 2993 2990 2987 2984
3095 3090 3085 3080 3075 3072 3069 3066 3064 3062 3059 3056 3053 3050 3047 3044 3041 3037 3034 3032 3030 3029 3028 3026 3023 3018 3017 3017 3017 3017 3018 3018 3017 3011 3001 2993 2989 2984 2985 2988 2987 2986 2984 2981 2977
3092 3086 3083 3078 3074 3070 3068 3065 3062 3059 3057 3055 3052 3050 3047 3043 3039 3036 3034 3032 3029 3028 3025 3023 3022 3018 3016 3013 3011 3012 3012 3012 3012 3010 3003 2996 2985 2982 2983 2983 2982 2981 2979 2976 2972
3088 3084 3081 3076 3074 3068 3065 3063 3061 3057 3055 3052 3050 3047 3045 3042 3037 3034 3032 3030 3028 3026 3023 3021 3018 3014 3011 3008 3007 3006 3006 3007 3008 3004 3002 3000 2984 2981 2980 2979 2977 2975 2973 2970 2966
3085 3082 3078 3075 3072 3068 3064 3062 3059 3055 3053 3050 3048 3044 3041 3039 3037 3031 3029 3027 3024 3023 3021 3019 3015 3013 3004 3005 3003 3001 3000 3001 3001 2998 2994 2994 2978 2974 2975 2975 2973 2970 2968 2965 2961
3083 3079 3075 3072 3069 3066 3062 3059 3057 3053 3050 3047 3043 3040 3038 3034 3033 3028 3025 3022 3019 3018 3016 3014 3009 3008 3004 3001 2999 2997 2995 2994 2994 2993 2983 2974 2970 2971 2973 2972 2968 2965 2962 2960 2956
3082 3079 3075 3071 3067 3063 3060 3057 3053 3050 3047 3044 3039 3037 3034 3029 3025 3020 3019 3017 3013 3011 3008 3008 2999 2997 2994 2994 2991 2987 2985 2983 2978 2973 2975 2965 2965 2963 2963 2960 2958 2958 2957 2954 2950
3082 3077 3074 3069 3065 3061 3058 3054 3050 3046 3044 3038 3034 3032 3028 3023 3022 3013 3013 3012 3006 3002 3001 2997 2992 2988 2983 2985 2981 2975 2971 2970 2965 2964 2961 2958 2954 2960 2957 2954 2953 2953 2951 2948 2945
3079 3075 3072 3068 3063 3060 3056 3051 3048 3043 3037 3033 3028 3022 3018 3016 3012 3009 3006 3002 3000 2996 2993 2992 2989 2987 2979 2979 2976 2967 2954 2955 2955 2954 2954 2952 2952 2952 2952 2951 2950 2949 2945 2943 2940